Location: Newark
(25.4297°S, 49.2719°W)
Time: 23:11:58
(UTC+00:00)

Vanguard 2 - All Passes

Search period start: 11 November 2019 00:00
Search period end: 21 November 2019 00:00
Orbit: 554 x 2937 km, 32.9° (Epoch: 11 November)

Date Brightness Start Highest point End Pass type
(mag) Time Alt. Az. Time Alt. Az. Time Alt. Az.
11 Nov - 00:58:50 10° WNW 01:10:50 80° NNE 01:28:31 10° ESE visible
11 Nov - 03:09:04 10° W 03:24:20 70° S 03:42:26 10° ESE visible
11 Nov - 05:21:40 10° WSW 05:39:28 71° S 05:55:29 10° E visible
11 Nov - 07:35:12 10° WSW 07:53:13 80° NNW 08:06:04 10° ENE visible
11 Nov - 09:50:36 10° W 10:03:35 33° NW 10:12:42 10° NNE daylight
11 Nov - 23:09:20 10° NNW 23:18:19 42° NE 23:32:07 10° ESE visible
12 Nov - 01:16:48 10° WNW 01:29:04 88° SSW 01:46:59 10° ESE visible
12 Nov - 03:27:33 10° W 03:43:06 67° S 04:01:00 10° ESE visible
12 Nov - 05:40:08 10° WSW 05:58:08 76° SSE 06:13:54 10° E visible
12 Nov - 07:53:40 10° WSW 08:11:16 67° NNW 08:23:48 10° NE visible
12 Nov - 10:10:19 10° W 10:21:02 23° NW 10:29:05 10° N daylight
12 Nov - 21:24:14 10° NNE 21:27:49 13° NE 21:32:03 10° ENE daylight
12 Nov - 23:26:37 10° NW 23:35:58 56° NE 23:50:53 10° ESE visible
13 Nov - 01:34:55 10° WNW 01:47:28 79° SSW 02:05:28 10° ESE visible
13 Nov - 03:46:02 10° W 04:01:53 67° S 04:19:40 10° E visible
13 Nov - 05:58:32 10° WSW 06:16:41 83° SSE 06:32:14 10° ENE visible
13 Nov - 08:12:16 10° WSW 08:29:09 54° NW 08:41:18 10° NE daylight
13 Nov - 10:31:14 10° W 10:38:28 15° NW 10:44:26 10° NNW daylight
13 Nov - 21:39:20 10° N 21:45:09 21° NE 21:53:06 10° E daylight
13 Nov - 23:44:10 10° NW 23:53:48 70° NNE 00:09:29 10° ESE visible
14 Nov - 01:53:10 10° W 02:06:01 72° SSW 02:24:01 10° ESE visible
14 Nov - 04:04:29 10° WSW 04:20:40 68° S 04:38:19 10° E visible
14 Nov - 06:16:55 10° WSW 06:35:05 87° NNW 06:50:22 10° ENE visible
14 Nov - 08:31:05 10° WSW 08:46:51 43° NW 08:58:30 10° NNE daylight
14 Nov - 21:55:45 10° NNW 22:02:31 30° NE 22:12:42 10° E visible
15 Nov - 00:01:58 10° WNW 00:11:50 85° NNE 00:27:59 10° ESE visible
15 Nov - 02:11:31 10° W 02:24:40 67° S 02:42:40 10° ESE visible
15 Nov - 04:22:53 10° WSW 04:39:22 72° SSE 04:56:55 10° E visible
15 Nov - 06:35:17 10° WSW 06:53:19 76° NNW 07:08:19 10° NE visible
15 Nov - 08:50:17 10° W 09:04:27 32° NW 09:15:18 10° NNE daylight
15 Nov - 22:12:45 10° NNW 22:20:00 43° NE 22:31:43 10° ESE visible
16 Nov - 00:19:56 10° WNW 00:30:03 83° SSW 00:46:28 10° ESE visible
16 Nov - 02:29:53 10° W 02:43:22 66° S 03:01:23 10° E visible
16 Nov - 04:41:13 10° WSW 04:58:00 79° SSE 05:15:25 10° ENE visible
16 Nov - 06:53:43 10° WSW 07:11:22 64° NW 07:26:00 10° NE visible
16 Nov - 09:10:08 10° W 09:22:00 24° NW 09:31:33 10° N daylight
16 Nov - 20:28:16 10° NE 20:30:05 11° NE 20:32:05 10° ENE daylight
16 Nov - 22:30:06 10° NW 22:37:39 58° NE 22:50:24 10° ESE visible
17 Nov - 00:38:05 10° W 00:48:26 74° SSW 01:05:01 10° ESE visible
17 Nov - 02:48:15 10° WSW 03:02:05 66° S 03:20:09 10° E visible
17 Nov - 04:59:30 10° WSW 05:16:29 87° SSE 05:33:46 10° ENE visible
17 Nov - 07:12:18 10° WSW 07:29:17 52° NW 07:43:25 10° NE visible
17 Nov - 09:31:16 10° W 09:39:35 16° NW 09:46:45 10° NNW daylight
17 Nov - 20:42:56 10° N 20:47:25 19° NE 20:53:26 10° E daylight
17 Nov - 22:47:44 10° NW 22:55:31 74° NNE 23:08:56 10° ESE visible
18 Nov - 00:56:18 10° W 01:06:58 67° S 01:23:38 10° ESE visible
18 Nov - 03:06:34 10° WSW 03:20:46 69° S 03:38:55 10° E visible
18 Nov - 05:17:46 10° WSW 05:34:50 83° NNW 05:51:54 10° ENE visible
18 Nov - 07:31:08 10° WSW 07:47:05 41° NW 08:00:30 10° NNE visible
18 Nov - 20:59:25 10° NNW 21:04:49 29° NE 21:12:53 10° E daylight
18 Nov - 23:05:34 10° WNW 23:13:34 89° SSW 23:27:24 10° ESE visible
19 Nov - 01:14:35 10° W 01:25:32 64° S 01:42:22 10° ESE visible
19 Nov - 03:24:50 10° WSW 03:39:23 74° SSE 03:57:36 10° E visible
19 Nov - 05:36:04 10° WSW 05:53:03 71° NNW 06:09:47 10° NE visible
19 Nov - 07:50:25 10° W 08:04:49 31° NW 08:17:11 10° NNE visible
19 Nov - 21:16:29 10° NNW 21:22:19 43° NE 21:31:45 10° ESE daylight
19 Nov - 23:23:35 10° WNW 23:31:47 76° SSW 23:45:53 10° ESE visible
20 Nov - 01:32:52 10° WSW 01:44:10 63° S 02:01:11 10° E visible
20 Nov - 03:43:01 10° WSW 03:57:53 81° SSE 04:16:08 10° ENE visible
20 Nov - 05:54:27 10° WSW 06:11:07 60° NW 06:27:24 10° NE visible
20 Nov - 08:10:25 10° W 08:22:33 23° NW 08:33:15 10° N daylight
20 Nov - 21:33:55 10° NW 21:40:01 60° NNE 21:50:20 10° ESE daylight
